TimeMST,TemperatureF,Dew PointF,Humidity,Sea Level PressureIn,VisibilityMPH,Wind Direction,Wind SpeedMPH,Gust SpeedMPH,PrecipitationIn,Events,Conditions,WindDirDegrees,DateUTC
12:54 AM,34.0,26.1,73,29.88,10.0,West,24.2,-,0.00,,Mostly Cloudy,270,2012-12-07 07:54:00
1:54 AM,32.0,26.1,79,29.88,10.0,West,24.2,-,N/A,,Clear,270,2012-12-07 08:54:00
2:54 AM,30.9,25.0,79,29.91,10.0,West,21.9,28.8,N/A,,Clear,270,2012-12-07 09:54:00
3:54 AM,28.9,23.0,78,29.92,10.0,West,18.4,-,N/A,,Clear,260,2012-12-07 10:54:00
4:54 AM,28.0,19.9,72,29.96,10.0,West,17.3,-,N/A,,Clear,260,2012-12-07 11:54:00
5:54 AM,27.0,19.9,75,29.97,10.0,West,20.7,-,N/A,,Clear,270,2012-12-07 12:54:00
6:54 AM,27.0,19.0,72,29.97,10.0,West,21.9,-,N/A,,Clear,260,2012-12-07 13:54:00
7:54 AM,27.0,17.1,66,29.99,10.0,West,25.3,-,N/A,,Clear,260,2012-12-07 14:54:00
8:54 AM,28.9,17.1,61,30.01,10.0,West,23.0,-,N/A,,Clear,260,2012-12-07 15:54:00
9:54 AM,30.9,17.1,57,30.01,10.0,West,27.6,34.5,N/A,,Clear,260,2012-12-07 16:54:00
10:54 AM,30.9,15.1,52,30.03,10.0,West,26.5,35.7,N/A,,Partly Cloudy,260,2012-12-07 17:54:00
11:54 AM,33.1,14.0,46,29.99,10.0,West,25.3,32.2,N/A,,Partly Cloudy,260,2012-12-07 18:54:00
12:54 PM,33.1,12.9,43,29.97,10.0,West,27.6,35.7,N/A,,Mostly Cloudy,260,2012-12-07 19:54:00
1:54 PM,34.0,10.9,38,29.97,10.0,West,27.6,35.7,N/A,,Scattered Clouds,260,2012-12-07 20:54:00
2:54 PM,32.0,16.0,52,29.98,10.0,West,21.9,-,N/A,,Mostly Cloudy,270,2012-12-07 21:54:00
3:54 PM,30.9,15.1,52,30.00,10.0,West,23.0,27.6,N/A,,Clear,270,2012-12-07 22:54:00
4:54 PM,28.9,12.9,51,30.00,10.0,West,17.3,26.5,N/A,,Clear,270,2012-12-07 23:54:00
5:54 PM,28.9,12.0,49,30.01,10.0,West,20.7,27.6,N/A,,Clear,270,2012-12-08 00:54:00
6:54 PM,28.0,12.0,51,30.00,10.0,West,23.0,31.1,N/A,,Clear,280,2012-12-08 01:54:00
7:54 PM,27.0,14.0,58,30.01,10.0,WSW,25.3,-,N/A,,Clear,250,2012-12-08 02:54:00
8:54 PM,27.0,15.1,61,29.98,10.0,WSW,21.9,-,N/A,,Clear,250,2012-12-08 03:54:00
9:54 PM,26.1,15.1,63,29.96,10.0,WSW,18.4,-,N/A,,Clear,250,2012-12-08 04:54:00
10:54 PM,27.0,15.1,61,29.94,10.0,WSW,16.1,-,N/A,,Partly Cloudy,240,2012-12-08 05:54:00
11:54 PM,28.0,15.1,58,29.90,10.0,SW,11.5,-,N/A,,Overcast,230,2012-12-08 06:54:00